Tracking 19475 objects as of 18-Jan-2019
HD Live streaming from Space Station
objects crossing your sky now

SJ-5

Track SJ-5 now!
10-day predictions
SJ-5 is classified as:


NORAD ID: 25731
Int'l Code: 1999-025B
Perigee: 845.3 km
Apogee: 871.3 km
Inclination: 99.1 °
Period: 102.0 minutes
Semi major axis: 7229 km
RCS: 1.539 m2 (large)
Launch date: May 10, 1999
Source: People's Republic of China (PRC)
Launch site: Taiyaun Space Center, China (TSC)
aabbcc
Your satellite tracking list
Your tracking list is empty




NASA's NSSDC Master Catalog

Two Line Element Set (TLE):
1 25731U 99025B   19018.15909993 -.00000014  00000-0  17333-4 0  9994
2 25731  99.0631  38.5350 0018001  93.4374 266.8856 14.12405955 14992
Source of the keplerian elements: AFSPC